This is the latest recevied weather packets stored in our database for station/object KK7MLS-13. If no packets are shown the sender has not sent any weather packets the latest 10 day(s).
| Time | Temp. | Humidity | Pressure | Rain* | Wind** | Luminosity | Snow |
|---|---|---|---|---|---|---|---|
| 1777686381 | 23.33° C | 51% | 1014.3 hPa | 0 mm | - | 52 W/m² | - |
| 1777686078 | 23.89° C | 50% | 1014.3 hPa | 0 mm | - | 53 W/m² | - |
| 1777685774 | 23.89° C | 49% | 1014.2 hPa | 0 mm | - | 61 W/m² | - |
| 1777685469 | 24.44° C | 49% | 1014.1 hPa | 0 mm | - | 76 W/m² | - |
| 1777685168 | 23.89° C | 49% | 1014.2 hPa | 0 mm | - | 96 W/m² | - |
| 1777684865 | 23.89° C | 47% | 1014.2 hPa | 0 mm | - | 84 W/m² | - |
| 1777684561 | 24.44° C | 45% | 1014.1 hPa | 0 mm | - | 103 W/m² | - |
| 1777684257 | 24.44° C | 46% | 1014.2 hPa | 0 mm | - | 115 W/m² | - |
| 1777683955 | 25° C | 45% | 1014.2 hPa | 0 mm | - | 114 W/m² | - |
| 1777683651 | 25° C | 46% | 1014.1 hPa | 0 mm | - | 145 W/m² | - |
| 1777683349 | 25° C | 46% | 1014.1 hPa | 0 mm | - | 115 W/m² | - |
| 1777683047 | 25° C | 49% | 1014.1 hPa | 0 mm | - | 141 W/m² | - |
| 1777682742 | 25° C | 45% | 1014.1 hPa | 0 mm | - | 137 W/m² | - |
| 1777682439 | 25° C | 43% | 1014.4 hPa | 0 mm | - | 156 W/m² | - |
| 1777682137 | 25.56° C | 41% | 1014.2 hPa | 0 mm | - | 192 W/m² | - |
| 1777681834 | 26.11° C | 38% | 1014.3 hPa | 0 mm | - | 192 W/m² | - |
| 1777681530 | 26.67° C | 36% | 1014.5 hPa | 0 mm | - | 224 W/m² | - |
| 1777681227 | 26.67° C | 38% | 1014.2 hPa | 0 mm | - | 267 W/m² | - |
| 1777680925 | 26.67° C | 39% | 1014.4 hPa | 0 mm | - | 247 W/m² | - |
| 1777680622 | 26.67° C | 37% | 1014.3 hPa | 0 mm | - | 266 W/m² | - |
| 1777680320 | 27.22° C | 36% | 1014.4 hPa | 0 mm | - | 288 W/m² | - |
| 1777680017 | 26.67° C | 37% | 1014.3 hPa | 0 mm | - | 328 W/m² | - |
| 1777679713 | 26.67° C | 36% | 1014.3 hPa | 0 mm | - | 307 W/m² | - |
| 1777679409 | 26.67° C | 39% | 1014.2 hPa | 0 mm | - | 340 W/m² | - |
| 1777679104 | 26.67° C | 38% | 1014.3 hPa | 0 mm | - | 344 W/m² | - |
* Rain latest hour (hover to see other rain measurements)
** Current wind speed in m/s (hover to see current wind gust speed)